Flag for Austria Weather past 2 weeks in Gmünd, Lower Austria, Austria

Now
71 °F

Mild.


Feels Like: 77 °F
Forecast: 50 / 58 °F
Wind: 2 mph from Southwest

Location: Retz

Current Time: Jul 28, 2015 at 10:37:15 PM

Latest Report: Jul 28, 2015 at 9:00 PM


Visibility: N/A

Pressure: 29.74 "Hg

Humidity: 52%

Dew point: 52 °F

Location of GmündLocation

Historic Weather in Gmünd — Graph

°F

Gmünd temperature yesterday

Maximum temperature yesterday: 74 °F (at 4:00 PM)
Minimum temperature yesterday: 58 °F (at 5:00 AM)
Average temperature yesterday: 63 °F

Past Weeks' High & Low Weather Summary

 TemperatureHumidityPressure
High96 °F (Jul 17, 3:00 PM)91% (Jul 27, 12:00 PM)30.11 "Hg (Jul 27, 12:00 PM)
Low56 °F (Jul 26, 6:00 AM)21% (Jul 17, 3:00 PM)29.64 "Hg (Jul 27, 4:00 PM)
Average75 °F56%29.89 "Hg
* Reported Jul 13 10:00 PM — Jul 28 9:00 PM, Gmünd, Weather by CustomWeather, © 2015

Note: Actual official high and low records may vary slightly from our data, if they occured in-between our weather recording intervals... More about our weather records

Advertising

Gmünd weather history for previous 24 hours

 ConditionsComfort  
Time TempWeatherWind HumidityBarometerVisibility
9:00 PM
Tue, Jul 28
71 °FMild.2 mph52%29.74 "HgN/A
8:00 PM74 °FPartly sunny.7 mph45%29.72 "Hg25 mi
7:00 PM75 °FMild.7 mph44%29.71 "HgN/A
6:00 PM77 °FMild.7 mph42%29.70 "HgN/A
5:00 PM75 °FMild.6 mph43%29.71 "HgN/A
4:00 PM75 °FMild.8 mph42%29.72 "HgN/A
3:00 PM76 °FMild.7 mph41%29.73 "HgN/A
2:00 PM75 °FOvercast.9 mph40%29.74 "Hg25 mi
1:00 PM74 °FMild.8 mph41%29.75 "HgN/A
12:00 PM75 °FMild.8 mph43%29.75 "HgN/A
11:00 AM73 °FMild.7 mph46%29.77 "HgN/A
10:00 AM69 °FMild.5 mph59%29.78 "HgN/A
8:00 AM64 °FPartly sunny.3 mph66%29.79 "Hg16 mi
7:00 AM60 °FPartly sunny.3 mph70%29.80 "Hg14 mi
6:00 AM60 °FCool.6 mph69%29.78 "HgN/A
4:00 AM58 °FCool.3 mph76%29.79 "HgN/A
3:00 AM59 °FCool.5 mph76%29.80 "HgN/A
2:00 AM60 °FCool.5 mph72%29.78 "HgN/A
1:00 AM61 °FCool.6 mph73%29.79 "HgN/A
12:00 AM62 °FCool.6 mph73%29.78 "HgN/A
10:00 PM
Mon, Jul 27
59 °FCool.3 mph85%29.77 "HgN/A
Weather by CustomWeather, © 2015

See weather overviewHow to use our weather pages